STARLINK-32922, 62926

Orbit data source: Space-Track

STARLINK-32922, 62926 is a payload satellite owned by SpaceX/Seattle (US) in LEO that was launched on Sat, 08 Feb 2025 UTC via an FALCON 9 launch vehicle from the Air Force Eastern Test Range (AFETR). Payload-class satellites include a variety of spacecraft equipped with specific instruments for various scientific and technological missions. These include communications satellites like Starlink; space stations such as the ISS; scientific satellites like the Hubble; Earth observation satellites from companies like Planet Labs, Umbra, and HawkEye 360; GPS; miniature CubeSats for education and research; and military/defense satellites.

Loading next visibility...
Identifier
62926, 2025-027V
Orbit
LEO
Country
Flag of USUS
Related business
Manufacturer
SpaceX/Seattle
Mission
Operational Commercial Communications
Bus & Motor
STARLINK V2M, Unknown motor
Mass
730 kg wet, ~700 kg dry
Launch date (UTC)
2025-02-08 (1 year ago)
Launch vehicle
FALCON 9
Launch site
Air Force Eastern Test Range (AFETR)
Object type
Payload
Rocket body
Debris
Shape & HBR
Box + 2 Pan, 17.7 m
Radar Cross Section
33.884 m², Large (>1 m²)

Expand to show TLE details & history
Last TLE update: 14 hours ago

TLE from 14 hours ago
0 STARLINK-32922
1 62926U 25027V   26126.57721713  .00017099  00000-0  62919-3 0  9997
2 62926  42.9985 162.1016 0001804 278.9643  81.1004 15.27593292 70391
Epoch: 2026-05-06T13:51Z
TLE epoch observation values (Epoch: 2026-05-06T13:51:11.560Z)
Latitude
-0.00003°
Longitude
89.86769°
Altitude
482.593 km
Speed
7.626 km/s
True Right ascension
10h 48m 24s
True Declination
0° 00' 00"
Sunlit
Object was in full shadow at epoch
Visualization orbit readout
Latitude
Unknown
Longitude
Unknown
Altitude
Unknown
Speed
Unknown
Apparent Right ascension
Unknown
Apparent Declination
Unknown
Sunlit
N/A
Visualization observer readout
Local Sidereal Time
12:09:12
Azimuth
Unknown
Elevation
Unknown
Doppler factor
Unknown
Orbital elements
Apogee altitude
486.193 km
Perigee altitude
483.717 km
Semi-major axis
6,863.092 km
Eccentricity
0.00018
Inclination
42.9985°
RAAN
162.1016°
Arg. of periapsis
278.9643°
True anomaly
81.12082°
Mean anomaly
81.1004°
Eccentric anomaly
81.11061°
Mean motion
3.81736 °/min
Orbital period
94.31 mins
BSTAR
0.00062919
Loading maneuver chart data...
Computing Atmospheric mass density...
Loading historical data...
Loading historical data...
Loading historical data...
Loading historical data...
Loading historical data...
Loading historical data...
Loading historical data...

Documentation

Showing up to 5 results
|